Weather History for KANW - September, 2013

Change the Weather History Date:

Tuesday, September 3, 2013

  Actual Average Record
Temperature  
Mean Temperature 76 °F -  
Max Temperature 91 °F 82 °F 95 °F (2000)
Min Temperature 62 °F 56 °F 35 °F (2008)
Cooling Degree Days 12    
Growing Degree Days 26 (Base 50)    
Moisture  
Dew Point 58 °F    
Average Humidity 60    
Maximum Humidity 84    
Minimum Humidity 29    
Precipitation  
Precipitation 0.00 in - - ()
Sea Level Pressure  
Sea Level Pressure 30.01 in    
Wind  
Wind Speed 12 mph (South)    
Max Wind Speed 22 mph    
Max Gust Speed 26 mph    
Visibility 10 miles    
Events      
Averages and records for this station are not official NWS values.
T = Trace of Precipitation, MM = Missing Value Source: NWS Daily Summary

Daily Weather History Graph

Daily Weather History Graph

Search for Another Location

Airport or City:

Trip Planner

Search our weather history database for the weather conditions in past years. The results will help you decide how hot, cold, wet, or windy it might be!

Date:

Astronomy

Sep. 03, 2013 Rise Set
Actual Time 7:07 AM CDT 8:10 PM CDT
Civil Twilight 6:38 AM CDT 8:39 PM CDT
Nautical Twilight 6:03 AM CDT 9:13 PM CDT
Astronomical Twilight 5:27 AM CDT 9:49 PM CDT
Moon 5:21 AM CDT (9/3) 6:58 PM CDT (9/3)
Length of Visible Light 14h 00m
Length of Day
13h 02m
Waning Crescent, 3% of the Moon is Illuminated
Sep 3
Waning Crescent
Sep 5
New
Sep 12
First Quarter
Sep 19
Full
Sep 26
Last Quarter

Hourly Weather History & Observations

Time (CDT) Temp. Heat Index Dew Point Humidity Pressure Visibility Wind Dir Wind Speed Gust Speed Precip Events Conditions
12:15 AM 68.4 °F - 59.9 °F 74% 30.04 in 10.0 mi SSE 10.4 mph - N/A   Clear
12:16 AM 68.0 °F - 60.8 °F 78% 30.04 in 10.0 mi SSE 10.4 mph - N/A   Clear
12:35 AM 67.8 °F - 60.1 °F 76% 30.03 in 10.0 mi SSE 9.2 mph - N/A   Clear
12:36 AM 68.0 °F - 60.8 °F 78% 30.03 in 10.0 mi SSE 9.2 mph - N/A   Clear
12:55 AM 67.1 °F - 60.1 °F 78% 30.03 in 10.0 mi SSE 10.4 mph - N/A   Clear
12:56 AM 66.2 °F - 60.8 °F 83% 30.03 in 10.0 mi SSE 10.4 mph - N/A   Clear
1:15 AM 66.7 °F - 59.9 °F 79% 30.04 in 10.0 mi South 10.4 mph - N/A   Clear
1:16 AM 66.2 °F - 60.8 °F 83% 30.04 in 10.0 mi South 9.2 mph - N/A   Clear
1:35 AM 66.2 °F - 59.9 °F 80% 30.03 in 10.0 mi South 10.4 mph - N/A   Clear
1:36 AM 66.2 °F - 60.8 °F 83% 30.03 in 10.0 mi SSE 9.2 mph - N/A   Clear
1:55 AM 66.0 °F - 60.1 °F 81% 30.04 in 10.0 mi South 11.5 mph - N/A   Clear
1:56 AM 66.2 °F - 60.8 °F 83% 30.04 in 10.0 mi South 10.4 mph - N/A   Clear
2:15 AM 65.7 °F - 59.9 °F 82% 30.04 in 10.0 mi South 10.4 mph - N/A   Clear
2:16 AM 66.2 °F - 60.8 °F 83% 30.04 in 10.0 mi South 10.4 mph - N/A   Clear
2:35 AM 65.7 °F - 59.7 °F 81% 30.04 in 10.0 mi South 11.5 mph - N/A   Clear
2:36 AM 66.2 °F - 60.8 °F 83% 30.04 in 10.0 mi South 12.7 mph - N/A   Clear
2:55 AM 66.0 °F - 59.5 °F 80% 30.04 in 10.0 mi South 13.8 mph - N/A   Clear
2:56 AM 66.2 °F - 60.8 °F 83% 30.04 in 10.0 mi South 12.7 mph - N/A   Clear
3:15 AM 65.7 °F - 59.2 °F 80% 30.04 in 10.0 mi South 10.4 mph - N/A   Clear
3:35 AM 65.5 °F - 59.2 °F 80% 30.04 in 10.0 mi South 10.4 mph - N/A   Clear
3:36 AM 66.2 °F - 59.0 °F 78% 30.04 in 10.0 mi South 11.5 mph - N/A   Clear
3:55 AM 65.3 °F - 59.2 °F 81% 30.03 in 10.0 mi South 11.5 mph - N/A   Clear
3:56 AM 64.4 °F - 59.0 °F 83% 30.03 in 10.0 mi South 10.4 mph - N/A   Clear
4:15 AM 64.8 °F - 59.2 °F 82% 30.03 in 10.0 mi South 10.4 mph - N/A   Clear
4:16 AM 64.4 °F - 59.0 °F 83% 30.03 in 10.0 mi South 10.4 mph - N/A   Clear
4:35 AM 64.4 °F - 59.0 °F 83% 30.03 in 10.0 mi South 10.4 mph - N/A   Clear
4:36 AM 64.4 °F - 59.0 °F 83% 30.03 in 10.0 mi South 10.4 mph - N/A   Clear
4:55 AM 64.8 °F - 59.0 °F 82% 30.03 in 10.0 mi South 10.4 mph - N/A   Clear
4:56 AM 64.4 °F - 59.0 °F 83% 30.03 in 10.0 mi South 9.2 mph - N/A   Clear
5:15 AM 64.4 °F - 58.5 °F 81% 30.03 in 10.0 mi South 9.2 mph - N/A   Clear
5:16 AM 64.4 °F - 59.0 °F 83% 30.03 in 10.0 mi South 9.2 mph - N/A   Clear
5:35 AM 63.5 °F - 58.5 °F 84% 30.03 in 10.0 mi South 9.2 mph - N/A   Clear
5:55 AM 63.1 °F - 58.3 °F 84% 30.03 in 10.0 mi South 8.1 mph - N/A   Clear
5:56 AM 62.6 °F - 57.2 °F 82% 30.03 in 10.0 mi South 8.1 mph - N/A   Clear
6:15 AM 63.5 °F - 58.3 °F 83% 30.03 in 10.0 mi South 10.4 mph - N/A   Clear
6:35 AM 63.7 °F - 57.9 °F 81% 30.03 in 10.0 mi South 10.4 mph - N/A   Clear
6:55 AM 64.0 °F - 57.7 °F 80% 30.03 in 10.0 mi South 11.5 mph - N/A   Clear
7:15 AM 64.0 °F - 57.2 °F 78% 30.03 in 10.0 mi South 10.4 mph - N/A   Clear
7:35 AM 64.6 °F - 57.2 °F 77% 30.03 in 10.0 mi South 11.5 mph - N/A   Clear
7:55 AM 65.7 °F - 57.2 °F 74% 30.03 in 10.0 mi South 9.2 mph - N/A   Clear
8:15 AM 66.7 °F - 57.2 °F 71% 30.02 in 10.0 mi South 12.7 mph - N/A   Clear
8:35 AM 68.5 °F - 57.4 °F 67% 30.02 in 10.0 mi South 13.8 mph - N/A   Clear
8:55 AM 70.5 °F - 57.6 °F 63% 30.02 in 10.0 mi SSW 12.7 mph - N/A   Clear
9:15 AM 70.7 °F - 57.9 °F 64% 30.02 in 10.0 mi SSW 11.5 mph - N/A   Clear
9:35 AM 71.6 °F - 57.9 °F 62% 30.03 in 10.0 mi SSW 12.7 mph - N/A   Clear
9:55 AM 74.8 °F - 57.6 °F 55% 30.03 in 10.0 mi SSW 13.8 mph - N/A   Clear
10:15 AM 76.1 °F - 58.3 °F 54% 30.03 in 10.0 mi SSW 13.8 mph 24.2 mph N/A   Clear
10:35 AM 76.5 °F - 58.8 °F 54% 30.03 in 10.0 mi SSW 10.4 mph - N/A   Clear
10:55 AM 81.1 °F 81.1 °F 56.7 °F 43% 30.03 in 10.0 mi SSW 20.7 mph 26.5 mph N/A   Clear
11:15 AM 83.5 °F 82.5 °F 55.4 °F 38% 30.03 in 10.0 mi SSW 19.6 mph 24.2 mph N/A   Clear
11:35 AM 83.3 °F 82.3 °F 55.0 °F 38% 30.03 in 10.0 mi SSW 18.4 mph 26.5 mph N/A   Clear
11:55 AM 85.3 °F 83.8 °F 54.7 °F 35% 30.03 in 10.0 mi SSW 21.9 mph - N/A   Clear
12:15 PM 84.0 °F 83.0 °F 55.6 °F 38% 30.02 in 10.0 mi SSW 16.1 mph 24.2 mph N/A   Clear
12:35 PM 85.1 °F 83.6 °F 54.7 °F 35% 30.02 in 10.0 mi SSW 18.4 mph 24.2 mph N/A   Clear
12:55 PM 88.0 °F 86.1 °F 54.5 °F 32% 30.01 in 10.0 mi SSW 19.6 mph 26.5 mph N/A   Clear
1:15 PM 89.2 °F 87.1 °F 53.8 °F 30% 30.01 in 10.0 mi SSW 17.3 mph 20.7 mph N/A   Clear
1:35 PM 87.3 °F 85.3 °F 54.0 °F 32% 30.01 in 10.0 mi SSW 15.0 mph 20.7 mph N/A   Clear
1:55 PM 86.9 °F 84.9 °F 54.0 °F 32% 30.00 in 10.0 mi SSW 17.3 mph 23.0 mph N/A   Clear
2:15 PM 89.4 °F 87.5 °F 55.0 °F 31% 29.99 in 10.0 mi SSW 18.4 mph - N/A   Clear
2:35 PM 90.5 °F 88.5 °F 55.2 °F 30% 29.98 in 10.0 mi SSW 18.4 mph 24.2 mph N/A   Clear
2:55 PM 90.1 °F 88.1 °F 55.0 °F 30% 29.98 in 10.0 mi South 19.6 mph 26.5 mph N/A   Clear
3:15 PM 90.9 °F 88.9 °F 55.2 °F 30% 29.98 in 10.0 mi SSW 18.4 mph 26.5 mph N/A   Clear
3:35 PM 91.4 °F 89.4 °F 55.4 °F 29% 29.98 in 10.0 mi South 17.3 mph 24.2 mph N/A   Clear
3:55 PM 91.0 °F 89.2 °F 55.4 °F 30% 29.97 in 10.0 mi SSW 15.0 mph 24.2 mph N/A   Clear
4:15 PM 90.9 °F 88.9 °F 55.2 °F 30% 29.97 in 10.0 mi South 18.4 mph 24.2 mph N/A   Clear
4:35 PM 90.9 °F 89.2 °F 55.9 °F 31% 29.97 in 10.0 mi South 17.3 mph 23.0 mph N/A   Clear
4:55 PM 91.0 °F 89.2 °F 55.9 °F 30% 29.97 in 10.0 mi South 17.3 mph - N/A   Clear
5:15 PM 91.0 °F 89.2 °F 55.8 °F 30% 29.97 in 10.0 mi South 16.1 mph 20.7 mph N/A   Clear
5:35 PM 91.0 °F 89.7 °F 57.0 °F 32% 29.97 in 10.0 mi South 16.1 mph 21.9 mph N/A   Clear
5:55 PM 90.0 °F 88.3 °F 56.3 °F 32% 29.97 in 10.0 mi South 15.0 mph 21.9 mph N/A   Clear
6:15 PM 89.6 °F 88.1 °F 57.0 °F 33% 29.97 in 10.0 mi South 13.8 mph - N/A   Clear
6:35 PM 88.7 °F 87.5 °F 57.7 °F 35% 29.97 in 10.0 mi SSE 11.5 mph - N/A   Clear
6:55 PM 87.1 °F 85.9 °F 56.8 °F 36% 29.97 in 10.0 mi SSE 10.4 mph - N/A   Clear
7:15 PM 85.8 °F 85.0 °F 57.9 °F 39% 29.97 in 10.0 mi SSE 10.4 mph - N/A   Clear
7:35 PM 84.9 °F 84.1 °F 57.7 °F 39% 29.97 in 10.0 mi SE 10.4 mph - N/A   Scattered Clouds
7:55 PM 83.1 °F 82.7 °F 57.9 °F 42% 29.98 in 10.0 mi SE 10.4 mph - N/A   Mostly Cloudy
8:15 PM 81.7 °F 81.6 °F 57.7 °F 44% 29.98 in 10.0 mi SE 8.1 mph - N/A   Scattered Clouds
8:35 PM 80.2 °F 80.6 °F 57.7 °F 46% 29.98 in 10.0 mi SE 9.2 mph - N/A   Scattered Clouds
8:55 PM 78.4 °F - 57.9 °F 49% 29.99 in 10.0 mi SE 10.4 mph - N/A   Clear
9:15 PM 78.3 °F - 57.6 °F 49% 29.99 in 10.0 mi SE 10.4 mph - N/A   Clear
9:35 PM 78.3 °F - 58.1 °F 50% 29.99 in 10.0 mi SE 12.7 mph - N/A   Clear
9:55 PM 77.5 °F - 58.8 °F 52% 30.00 in 10.0 mi SE 12.7 mph - N/A   Clear
10:15 PM 77.0 °F - 60.6 °F 57% 30.00 in 10.0 mi SSE 12.7 mph 19.6 mph N/A   Clear
10:35 PM 76.6 °F - 60.8 °F 58% 30.00 in 10.0 mi SSE 13.8 mph - N/A   Clear
10:55 PM 76.5 °F - 60.1 °F 57% 30.00 in 10.0 mi SSE 13.8 mph 21.9 mph N/A   Clear
11:15 PM 77.0 °F - 59.9 °F 55% 30.01 in 10.0 mi SSE 15.0 mph - N/A   Scattered Clouds
11:35 PM 76.5 °F - 59.9 °F 56% 30.01 in 10.0 mi SSE 13.8 mph - N/A   Mostly Cloudy
11:55 PM 76.1 °F - 60.1 °F 57% 30.01 in 10.0 mi SSE 13.8 mph 19.6 mph N/A   Mostly Cloudy